Regional Weather Roundup
Issued by NWS Sterling, VA

Home | Current Version | Previous Version | Graphics & Text | Print | Product List | Glossary On
Versions: 1 2 3 4 5 6 7 8 9 10 11 12 13 14 15 16 17 18 19 20 21 22 23 24 25 26 27 28 29 30 31 32 33 34 35 36 37 38 39 40 41 42 43 44 45 46 47 48 49 50
000
ASUS41 KLWX 050410
RWRLWX

REGIONAL WEATHER ROUNDUP
NATIONAL WEATHER SERVICE BALTIMORE MD/WASHINGTON DC
1200 AM EDT SAT SEP 05 2015

Note: "FAIR" indicates few or no clouds below 12,000 feet
with no significant weather and/or obstructions to visibility.
 TC=TEMPERATURE CELSIUS

 * =Non NWS site. Station does not report precipitation (e.g. rain,
    snow, etc.), thunder, or fog.

DCZ001-MDZ009-015-VAZ040>042-051-053>054-050500-
WASHINGTON METRO

CITY           SKY/WX    TMP DP  RH WIND       PRES   REMARKS
WASHINGTON NAT MOCLDY    77  71  82 E10       30.14S
DULLES         PTCLDY    74  70  87 E7        30.14S
ANDREWS AFB    PTCLDY    74  69  85 E6        30.14R
FT BELVOIR     PTCLDY    75  70  83 VRB2      30.13S
QUANTICO       PTCLDY    75  70  84 E8        30.14S
COLLEGE PARK*  PTCLDY    75  70  83 E3        30.15R
LEESBURG*      PTCLDY    77  73  88 E3        30.15F
MANASSAS*      MOCLDY    75  72  88 E3        30.13F
GAITHERSBURG*  MOCLDY    73  66  78 E6        30.19S

$$

MDZ006>007-011-014-050500-
BALTIMORE METRO

CITY           SKY/WX    TMP DP  RH WIND       PRES   REMARKS
BWI AIRPORT    MOCLDY    76  69  79 E12       30.15R
MD SCIENCE CTR   N/A     77  68  73 MISG      30.16R
ANNAPOLIS      PTCLDY    77  71  82 E7        30.14S
FORT MEADE*    MOCLDY    73  68  83 E7        30.17S

$$

MDZ012-015-019>023-050500-
MARYLAND EASTERN SHORE

CITY           SKY/WX    TMP DP  RH WIND       PRES   REMARKS
OCEAN CITY     PTCLDY    77  71  82 NE12      30.12R
SALISBURY      FAIR      73  71  93 NE8       30.13R
BAY BRIDGE AP*   N/A     73  68  83 NE7       30.15S
CAMBRIDGE*     PTCLDY    73  70  88 NE3       30.14R

$$

MDZ017>025-050500-
SOUTHERN MARYLAND

CITY           SKY/WX    TMP DP  RH WIND       PRES   REMARKS
PATUXENT RIVER MOCLDY    75  71  87 NE10      30.13R
ST INIGOES     MOCLDY    77  72  84 NE6       30.11S
LEONARDTOWN*   NOT AVBL

$$

MDZ003>005-050500-
NORTH CENTRAL MARYLAND

CITY           SKY/WX    TMP DP  RH WIND       PRES   REMARKS
FREDERICK*     CLOUDY    75  72  88 NE3       30.18S
HAGERSTOWN APT PTCLDY    76  69  79 N5        30.16R
WESTMINSTER*   MOCLDY    73  70  88 E6        30.18S

$$

MDZ501>502-050500-
WESTERN MARYLAND

CITY           SKY/WX    TMP DP  RH WIND       PRES   REMARKS
OAKLAND*       PTCLDY    64  61  88 SE6       30.23S
CUMBERLAND*    PTCLDY    72  70  94 N3        30.19R

$$

VAZ025>031-050500-
SHENANDOAH VALLEY

CITY           SKY/WX    TMP DP  RH WIND       PRES   REMARKS
WINCHESTER*    MOCLDY    72  68  88 CALM      30.16R
FRONT ROYAL*   FAIR      73  68  83 SE7       30.14R
LURAY*         CLOUDY    68  68 100 CALM      30.16R FOG
NEW MARKET*    FAIR      67  66  99 CALM      30.15R
STAUNTON*      CLOUDY    70  67  89 CALM      30.19R
WAYNESBORO*    MOCLDY    69  67  94 CALM      30.19R

$$

WVZ021-048>050-054>055-050500-
EASTERN WEST VIRGINIA PANHANDLE

CITY           SKY/WX    TMP DP  RH WIND       PRES   REMARKS
MARTINSBURG    MOCLDY    73  70  90 N3        30.15S FOG
PETERSBURG*    MOCLDY    68  67  98 CALM      30.16S FOG

$$

VAZ036>039-050-050500-
CENTRAL FOOTHILLS

CITY           SKY/WX    TMP DP  RH WIND       PRES   REMARKS
CHARLOTTESVILL PTCLDY    69  66  90 CALM      30.14R
CULPEPER*      MOCLDY    71  69  95 CALM      30.14S
ORANGE*        MOCLDY    70  70 100 CALM      30.15R FOG
GORDONSVILLE*  FOG       68  68 100 CALM      30.14R VSB 1/2
WARRENTON*     FAIR      71  71  99 CALM      30.14R FOG

$$

VAZ055>057-050500-
NORTH AND CENTRAL PIEDMONT

CITY           SKY/WX    TMP DP  RH WIND       PRES   REMARKS
FREDERICKSBRG* MOCLDY    75  71  87 E3        30.12S
STAFFORD*      MOCLDY    73  70  91 E6        30.17S FOG

$$

NCZ024-NYZ072-PAZ021-071-VAZ022-071-050500-
OTHER REGIONAL OBSERVATIONS

CITY           SKY/WX    TMP DP  RH WIND       PRES   REMARKS
NEW YORK CITY  CLEAR     73  61  65 VRB6      30.24R
PHILADELPHIA   MOCLDY    75  66  73 E12       30.19R
PITTSBURGH     MOCLDY    72  64  76 E5        30.12S
ROANOKE        MOCLDY    67  66  97 W7        30.17S
RICHMOND       MOCLDY    74  69  85 NE5       30.11S
RALEIGH        MOCLDY    73  69  87 NE6       30.08R

$$

ANZ530>537-050500-
MARINE OBSERVATIONS

STATION/POSITION TIME  TEMP    WIND        PRES
                       AIR SEA DIR/SP/G
                 (UTC) (F)     (DEG/KT/KT) (MB)
THOMAS PT LIGHT  NOT AVBL
BALT KEY BRIDGE  0300   77      70/ 13/ 16 1020.8R
COVE POINT       0300   75      90/ 12/ 16 1021.0R
LEWISETTA        0300   78 82   90/ 15/ 18 1019.2R
SOLOMONS ISLAND  0300      83                N/A
PINEY POINT      0305           90/  9/ 13   N/A

$$



USA.gov is the U.S. government's official web portal to all federal, state and local government web resources and services.